GW5292 Weather Reports


Display with metric or nautical units.
time (UTC)temp
F
wind
direction
speed
MPH
gust
MPH
rain 1hr
in
rain 24hr
in
rain mn
in
humidity
%
barometer
mb
20260508161512 61 189 7.0 13.0 0.00 0.00 0.00 45 1012.6
20260508160019 61 223 5.0 10.0 0.00 0.00 0.00 47 1012.7
20260508154511 60 209 3.0 7.0 0.00 0.00 0.00 49 1012.8
20260508153007 59 198 3.0 7.0 0.00 0.00 0.00 47 1013.0
20260508151512 58 213 3.0 5.0 0.00 0.00 0.00 51 1013.3
20260508150034 56 225 5.0 9.0 0.00 0.00 0.00 54 1013.5
20260508144512 55 212 4.0 6.0 0.00 0.00 0.00 57 1013.8
20260508143016 54 217 3.0 6.0 0.00 0.00 0.00 58 1013.9
20260508141511 53 192 2.0 6.0 0.00 0.00 0.00 59 1014.0
20260508140024 53 202 3.0 6.0 0.00 0.00 0.00 58 1013.8
20260508134513 53 215 1.0 4.0 0.00 0.00 0.00 63 1014.1
20260508133014 52 213 1.0 3.0 0.00 0.00 0.00 65 1014.1
20260508131510 52 225 1.0 4.0 0.00 0.00 0.00 66 1014.2
20260508130013 51 215 1.0 3.0 0.00 0.00 0.00 70 1014.0
20260508124518 51 209 1.0 3.0 0.00 0.00 0.00 72 1014.0
20260508123020 50 203 1.0 3.0 0.00 0.00 0.00 72 1013.9
20260508121506 49 209 1.0 2.0 0.00 0.00 0.00 77 1013.9
20260508120011 47 207 1.0 2.0 0.00 0.00 0.00 83 1014.0
20260508114517 45 224 1.0 2.0 0.00 0.00 0.00 88 1014.0
20260508113022 43 253 0.0 2.0 0.00 0.00 0.00 93 1013.9
20260508111522 42 253 0.0 0.0 0.00 0.00 0.00 93 1013.8
20260508110009 40 253 0.0 0.0 0.00 0.00 0.00 93 1013.7
20260508104516 40 253 0.0 0.0 0.00 0.00 0.00 93 1013.4
20260508103021 38 253 0.0 0.0 0.00 0.00 0.00 92 1013.3
20260508101459 38 253 0.0 0.0 0.00 0.00 0.00 91 1013.4
20260508095959 39 253 0.0 0.0 0.00 0.00 0.00 91 1013.2
20260508094502 39 253 0.0 0.0 0.00 0.00 0.00 91 1013.1
20260508093004 39 253 0.0 0.0 0.00 0.00 0.00 91 1013.1
20260508091504 40 253 0.0 0.0 0.00 0.00 0.00 90 1012.9
20260508085958 40 253 0.0 0.0 0.00 0.00 0.00 89 1012.9
20260508084502 41 253 0.0 2.0 0.00 0.00 0.00 89 1012.9
20260508083002 41 253 0.0 2.0 0.00 0.00 0.00 88 1012.7
20260508081504 42 263 0.0 0.0 0.00 0.00 0.00 88 1012.5
20260508080009 42 263 0.0 0.0 0.00 0.00 0.00 87 1012.5
20260508074502 42 263 0.0 0.0 0.00 0.00 0.00 86 1012.4
20260508073003 43 263 0.0 0.0 0.00 0.00 0.00 84 1012.3
20260508071504 44 263 0.0 0.0 0.00 0.00 0.00 82 1012.2
20260508070024 45 263 0.0 2.0 0.00 0.00 0.00 80 1012.3
20260508064517 47 264 0.0 0.0 0.00 0.00 0.00 77 1012.1
20260508063010 48 264 0.0 1.0 0.00 0.01 0.00 75 1012.0
20260508061517 49 214 0.0 3.0 0.00 0.01 0.00 74 1011.9
20260508060017 50 258 0.0 4.0 0.00 0.01 0.00 72 1012.0
20260508054538 51 360 0.0 3.0 0.00 0.01 0.00 70 1011.6
20260508053008 51 299 1.0 5.0 0.00 0.02 0.00 67 1011.3
20260508051513 52 313 2.0 9.0 0.00 0.04 0.00 66 1011.1
20260508050018 51 11 1.0 2.0 0.00 0.04 0.00 68 1011.1
20260508044522 52 185 0.0 0.0 0.00 0.05 0.00 72 1009.9
20260508043025 52 185 0.0 2.0 0.00 0.05 0.00 66 1009.9
20260508041508 52 185 0.0 2.0 0.00 0.05 0.00 67 1009.9
20260508040035 52 185 0.0 2.0 0.00 0.05 0.00 74 1009.9
20260508034520 52 277 0.0 0.0 0.00 0.05 0.05 75 1009.4
20260508033024 52 277 0.0 2.0 0.00 0.05 0.05 73 1009.3
20260508031531 52 277 0.0 2.0 0.00 0.05 0.05 75 1009.2
20260508030013 53 277 0.0 2.0 0.00 0.05 0.05 73 1009.2
20260508024513 53 277 0.0 2.0 0.00 0.05 0.05 69 1009.2
20260508023008 53 333 1.0 2.0 0.00 0.05 0.05 67 1009.2
20260508021502 52 248 0.0 0.0 0.00 0.05 0.05 73 1009.0
20260508020006 53 248 0.0 0.0 0.00 0.05 0.05 73 1009.0
20260508014514 53 248 0.0 0.0 0.00 0.05 0.05 71 1008.9
20260508013003 53 248 0.0 0.0 0.00 0.05 0.05 68 1008.7
20260508011503 54 248 0.0 0.0 0.00 0.05 0.05 64 1008.7
20260508010005 54 248 0.0 0.0 0.00 0.05 0.05 68 1008.5
20260508004510 55 248 0.0 0.0 0.00 0.05 0.05 66 1008.4
20260508003018 55 248 0.0 0.0 0.00 0.05 0.05 61 1008.3
20260508001505 56 248 0.0 0.0 0.00 0.05 0.05 56 1008.2
20260508000003 57 248 0.0 0.0 0.00 0.05 0.05 53 1008.1
20260507234504 58 248 0.0 2.0 0.00 0.07 0.05 47 1008.0
20260507233014 60 248 0.0 0.0 0.00 0.12 0.05 42 1007.8
20260507231513 60 248 0.0 0.0 0.00 0.21 0.05 44 1007.8
20260507230011 61 248 0.0 2.0 0.00 0.22 0.05 46 1007.8
20260507224507 61 192 0.0 2.0 0.00 0.22 0.05 44 1007.7
20260507223011 62 192 0.0 2.0 0.00 0.22 0.05 42 1007.8
20260507221518 62 326 0.0 3.0 0.00 0.22 0.05 36 1007.8
20260507220029 62 11 2.0 5.0 0.00 0.22 0.05 36 1007.9
20260507214503 63 348 0.0 2.0 0.00 0.22 0.05 39 1007.9
20260507213010 64 13 2.0 5.0 0.00 0.22 0.05 35 1007.9
20260507211511 64 360 0.0 3.0 0.00 0.22 0.05 37 1007.9
20260507210025 65 34 0.0 3.0 0.00 0.22 0.05 36 1007.9
20260507204524 64 161 1.0 5.0 0.00 0.22 0.05 36 1007.9
20260507203003 64 164 1.0 4.0 0.00 0.22 0.05 38 1007.9
20260507201509 65 119 2.0 5.0 0.00 0.22 0.05 39 1007.9
20260507200015 63 360 3.0 7.0 0.00 0.22 0.05 38 1008.0
20260507194530 63 85 1.0 4.0 0.00 0.22 0.05 37 1008.4
20260507193023 64 174 1.0 3.0 0.00 0.22 0.05 38 1008.5
20260507191508 63 9 1.0 6.0 0.00 0.22 0.05 37 1008.7
20260507190013 64 48 1.0 2.0 0.00 0.22 0.05 1008.9
20260507184521 63 159 1.0 5.0 0.00 0.22 0.05 37 1008.9
20260507183023 64 105 1.0 3.0 0.00 0.22 0.05 38 1009.0
20260507181528 64 270 1.0 3.0 0.00 0.22 0.05 39 1009.2
20260507180015 63 110 1.0 4.0 0.00 0.22 0.05 38 1009.2
20260507174508 63 328 1.0 7.0 0.00 0.22 0.05 36 1009.4
20260507173009 62 231 2.0 5.0 0.00 0.22 0.05 1009.6
20260507171506 62 12 4.0 7.0 0.00 0.22 0.05 38 1010.0
20260507170013 63 239 1.0 4.0 0.00 0.23 0.05 40 1010.3
20260507164522 62 191 1.0 5.0 0.00 0.24 0.05 45 1010.5
20260507163003 61 19 3.0 8.0 0.00 0.26 0.05 42 1010.7